Regional Weather Roundup
Issued by NWS Wakefield, VA

Home | Current Version | Previous Version | Text Only | Print | Product List | Glossary On
Versions: 1 2 3 4 5 6 7 8 9 10 11 12 13 14 15 16 17 18 19 20 21 22 23 24 25 26 27 28 29 30 31 32 33 34 35 36 37 38 39 40 41 42 43 44 45 46 47 48 49 50
379
ASUS41 KAKQ 271915
RWRAKQ

REGIONAL WEATHER ROUNDUP
NATIONAL WEATHER SERVICE WAKEFIELD VA
300 PM EDT SAT AUG 27 2016

Note: "fair" indicates few or no clouds below 12,000 feet with no
significant weather and/or obstructions to visibility. * = Denotes
station may not report precipitation (e.g., rain,snow,etc.),
thunder or fog.

VAZ042-051-052>054-056-272000-
NORTHERN VIRGINIA

CITY           SKY/WX    TMP DP  RH WIND       PRES   REMARKS
WASH NATIONAL  MOSUNNY   91  66  43 E12       30.16F
DULLES         MOSUNNY   90  62  39 VRB3      30.16F
FORT BELVOIR   SUNNY     90  64  42 SE5       30.15F
QUANTICO       SUNNY     91  62  37 SE5       30.16F
FREDERICKSBRG*   N/A     91  65  42 SE5       30.14F
STAFFORD*      SUNNY     91  60  34 NE9       30.20S
WARRENTON      SUNNY     91  62  37 E7        30.16F
CULPEPER*      SUNNY     91  71  51 SE3       30.17S HX  96
MANASSAS*      MOSUNNY   90  64  43 E3        30.16
LEESBURG*      MOSUNNY   90  66  45 CALM      30.17F
WINCHESTER     PTSUNNY   88  68  51 SE7       30.18S
FRONT ROYAL*   FAIR      84  70  61 CALM      30.17F
LURAY*         FAIR      90  64  43 CALM      30.18F
$$

VAZ048-049-060>072-079>083-272000-
CENTRAL AND SOUTH CENTRAL VIRGINIA

CITY           SKY/WX    TMP DP  RH WIND       PRES   REMARKS
RICHMOND       MOSUNNY   93  63  36 N10       30.13F
CHESTERFIELD*  FAIR      93  59  31 E5        30.14F
PETERSBURG*    MOSUNNY   96  62  32 NE10G18   30.13S HX  97
HANOVER        SUNNY     92  65  40 VRB6      30.16F
TAPPAHANNOCK*  SUNNY     91  62  37 NE9       30.15F
QUINTON*       FAIR      92  64  39 NE9       30.13F
CHARLOTTSVILLE SUNNY     92  68  45 CALM      30.16F HX  96
GORDONSVILLE*  NOT AVBL
ORANGE*          N/A     90  66  45 CALM      30.18F
LOUISA*        SUNNY     93  70  46 CALM      30.15F HX  99
BUMPASS*       FAIR      90  70  51 E5        30.16S HX  95
FARMVILLE*     MOSUNNY   93  70  46 E8        30.12F HX  99
CREWE*         FAIR      94  69  44 E7        30.12F HX  99
FORT PICKETT*  NOT AVBL
CHASE CITY*    FAIR      95  68  42 E8        30.11F HX  99
CLARKSVILLE*   FAIR      95  72  46 E7        30.10F HX 103
SOUTH HILL*    PTSUNNY   90  74  59 CALM      30.17S HX  98
LAWRENCEVILLE* FAIR      94  69  44 NE5       30.11F HX  99
EMPORIA*       MOSUNNY   91  68  46 NE6       30.12S HX  95
$$

VAZ088>098-272000-
SOUTHEAST VIRGINIA

CITY           SKY/WX    TMP DP  RH WIND       PRES   REMARKS
NORFOLK        SUNNY     86  73  65 E12       30.12F
VIRGINIA BEACH MOSUNNY   92  74  55 NE8       30.12F HX 101
NORFOLK NAVAL  MOSUNNY   88  73  61 E13       30.14F HX  95
WEST POINT*    SUNNY     91  63  39 NE7       30.15S
SALUDA*        FAIR      87  70  56 E6        30.14S
NEWPORT NEWS   SUNNY     90  73  57 E10       30.13F HX  98
LANGLEY AFB    SUNNY     89  73  59 NE12      30.12F HX  97
FORT EUSTIS    SUNNY     94  70  44 E10       30.11S HX 100
WILLIAMSBURG*  SUNNY     97  72  44 CALM      30.13S HX 105
HR EXEC AP*    FAIR      91  72  52 E10G17    30.14S HX  98
FRANKLIN*      SUNNY     93  67  42 E16       30.12S HX  96
US460-WAKEFLD  SUNNY     92  64  39 NE7       30.12F
$$

VAZ020-022-025-037-045-272000-
WEST CENTRAL AND SOUTHWEST VIRGINIA

CITY           SKY/WX    TMP DP  RH WIND       PRES   REMARKS
STAUNTON*      SUNNY     87  67  51 SE6       30.21F
WAYNESBORO*    FAIR      87  67  50 SE3       30.21F
HOT SPRINGS VA SUNNY     81  67  61 SE3       30.33F
LYNCHBURG      SUNNY     91  71  51 VRB6      30.16F HX  97
DANVILLE       TSTM      74  72  93 SE5       30.13R FOG
SOUTH BOSTON*  MOCLDY    91  70  49 E3        30.10F HX  97
MARTINSVILLE   SUNNY     92  74  56 NE7       30.16F HX 102
ROANOKE        PTSUNNY   90  73  57 SE9       30.18F HX  98
BLACKSBURG     MOSUNNY   87  71  58 E6        30.25F
DUBLIN*        PTSUNNY   86  73  65 NE10      30.23F
MARION*        MOSUNNY   90  69  51 SE3       30.26F
HILLSVILLE*    MOSUNNY   85  72  65 SE5       30.24F
RICHLANDS*     FAIR      86  69  55 SE3       30.24F
WISE*          SUNNY     88  48  25 S3        30.24F
ABINGDON*      CLOUDY    90  65  42 CALM      30.19F
$$

MDZ021>025-VAZ099-100-272000-
SOUTHERN MARYLAND AND THE DELMARVA PENINSULA

CITY           SKY/WX    TMP DP  RH WIND       PRES   REMARKS
PATUXENT RIVER MOSUNNY   88  64  44 SE7       30.15F
BAY BRIDGE APT SUNNY     88  68  51 NE3       30.16F
LEONARDTOWN    SUNNY     86  63  45 E3        30.17F
DOVER          SUNNY     88  69  54 E5        30.14F
GEORGETOWN     NOT AVBL
EASTON         SUNNY     90  68  48 E6        30.19F
CAMBRIDGE      SUNNY     88  63  42 E6        30.15S
SALISBURY      SUNNY     88  65  46 NE9       30.15S
OCEAN CITY     SUNNY     84  72  67 NE10      30.15F
WALLOPS ISLAND SUNNY     86  61  42 NE13      30.14F
ACCOMACK*      SUNNY     89  62  39 E9        30.13F
$$

NCZ012>017-030>032-272000-
NORTH CENTRAL AND EASTERN NORTH CAROLINA

CITY           SKY/WX    TMP DP  RH WIND       PRES   REMARKS
ROANOKE RAPIDS FAIR      90  72  55 E6        30.09F HX  96
RALEIGH        PTSUNNY   93  70  46 SE13      30.09F THUNDER HX  99
ELIZABETH CITY MOSUNNY   91  72  53 NE12      30.11S HX  98
AHOSKIE*       SUNNY     91  69  47 N10       30.09F HX  96
EDENTON*       SUNNY     91  73  55 SE14      30.10S HX 100
CURRITUCK*       N/A     87  76  69 NE9       30.12S HX  97
KILL DEVIL HLS SUNNY     89  80  74 N8        30.09F HX 106
MANTEO         SUNNY     86  76  71 NE10      30.10F HX  97
CAPE HATTERAS  SUNNY     89  76  65 NE7       30.09F HX 100
TARBORO*       FAIR      95  75  51 NE6       30.09F HX 107
GOLDSBORO      MOSUNNY   95  72  47 NE8       30.06F HX 102
WASHINGTON     SUNNY     92  73  54 NE10      30.08F HX 101
GREENVILLE     PTSUNNY   91  72  52 E10       30.09F HX  98
NEW BERN       MOSUNNY   92  72  51 NE10      30.08F HX  99
WILMINGTON     SUNNY     89  73  59 MISG      30.08F HX  97
$$

VAZ048-272000-
ELSEWHERE

CITY           SKY/WX    TMP DP  RH WIND       PRES   REMARKS
HARRISBURG PA  CLOUDY    88  68  51 S3        30.16F
BALTIMORE      MOSUNNY   89  63  41 E8        30.16F
ANNAPOLIS      SUNNY     88  69  53 SE5       30.16F
ANDREWS AFB    SUNNY     88  65  46 E8        30.16F
PHILADELPHIA   PTSUNNY   91  59  33 VRB7      30.15F
HENDERSON NC   MOSUNNY   90  72  54 E14G20    30.11F HX  96
GREENSBORO     PTSUNNY   91  73  55 E6        30.12F HX  99
ROCKY MOUNT    SUNNY     96  73  47 E6        30.08F HX 105
$$

VAZ100-272000-
MARINE

STATION/POSITION TIME  TEMP    WIND        PRES    WAVE   SWELL
                       AIR SEA DIR/SP/G            HT/PER HT/PER
                 (UTC) (F)     (DEG/KT/KT) (MB)    (FT/S) (FT/S)
BRANDYWINE LGT   1800   81     350/  1/  3   N/A
CAPE MAY NJ      1800   82 77   90/  6/ 10 1021.1S
LEWES DE         1800   77 78   80/ 14/ 16 1021.3F
OCEAN-CITY-INLET 1800   79 74   30/  8/ 14 1021.7S
WACHAPREAGUE VA  1800   83 85   40/ 12/ 14 1020.7F
THOMAS POINT MD  1900   83 84  360/  5/  5 1022.7F
GOOSES REEF MD   1800   85 83   40/  6/  6 1022.0F   1
COVE POINT MD    1800   84      20/  6/  9 1021.8F
SOLOMONS ISLAND  1800   85 85  120/  3/  4   N/A
PINEY POINT MD   1800          110/  8/ 10   N/A
POTOMAC MD       1800   84 84   50/  6/  8 1020.3F   1/ 6
CAMBRIDGE MD     1800   86 84   60/  5/  8 1020.5F
LEWISETTA VA     1800   84 85   80/  4/  6 1021.0F
RAPPAHANNOCK LGT 1800           50/  7/  8 1021.2F
STINGRAY PT      1800   85 84  350/ 10/ 12 1021.3F   1/ 3
YORK RVR RNG VA  1800   84      70/ 10/ 10 1020.2S
YORKTOWN VA      1800   84 84   90/ 12/ 13 1020.3F
JAMESTOWN VA     1800   90 86   90/  6/ 12   N/A     0
DOMINION TERM VA 1800   84      80/ 10/ 13 1020.6S
KIPTOPEKE VA     1800      82   60/ 11/ 13   N/A
CHES BAY BRIDGE  1800   81 81   40/ 12/ 14 1020.3R
CAPE HENRY VA    1800   80      30/ 10/ 12   N/A
WILLOUBY STN VA  1800   83      50/  9/ 11   N/A
CAPE HENRY BUOY  1812      80                N/A     3/10
1ST LANDING BUOY 1800   81 82   70/ 12/ 16 1020.2R   2/ 3
CAPE CHARLES BUO 1826      79                N/A     3/10
OFFSHORE WE BUOY 1821      81                N/A     3/10
64NM E OF VA BCH 1850   81 81   50/ 10/ 12 1018.9F   2/ 9   2/ 9
DUCK PIER NC     1800   80 65   20/  7/  9 1019.2S
44100 DUCK FRF   1805      81                N/A     2/10
44056 DUCK FRF   1811      80                N/A     2/ 9
OREGON INLET NC  1800   82 81   10/  8/ 12 1019.3F
HATTERAS NC      1800   84 83  360/  6/  8 1018.9F
DIAMOND SHLS NC  1850   83 85   40/  6/  8 1019.0F   3/10   3/10
CAPE LOOKOUT NC  1900   83      90/ 10/ 11 1018.5F
$$




USA.gov is the U.S. government's official web portal to all federal, state and local government web resources and services.